Fuzhou Changle International Airport
ZSFZ : now visible

Airfield :











YOU CAN JOIN US ON...

 
LOGIN :

Register | Disclaimer

   EN    FR    IT 

 









Legend :    VFR   Marginal VFR   IFR   Intensive IFR   Very Intensive IFR
Visi :
Ceiling :
>= 8 km
>= 3000ft
5 to 8 km
1000 to 3000 ft
1500m to 5 km
500 to 1000 ft
800 to 1500m
200 to 500 ft
< 800m
< 200 ft
Symbols :   Thunderstorms  Fog  Heavy snow  Heavy precipitations  Wind > 20 kt






- Airport Elevation : 46 ft
- IATA code : FOC


ZSFZ - Fuzhou Changle International

CURRENT METAR :
  • 291000Z 03007MPS CAVOK 21/17 Q1020 NOSIG

EXPIRED METARs :
  • 290900Z 03007MPS 8000 -RA NSC 21/16 Q1020 NOSIG
  • 290800Z 03007MPS 9999 -RA BKN036 21/16 Q1020 NOSIG

TAF TAF ZSFZ
Valid from the 29 at 06:00 until the 30 at 06:00 UTC


290312Z 2906/3006 03007MPS 6000 SCT020 TX23/2906Z TN19/2922Z
ZSHA FIR / Asia



MET'MAP, your aeronautical weather chart ! - Copyright ORBIFLY December 2007 - Disclaimer

ORBIFLY MET'MAP TEAM :

Programming & Development : Alexandra Zaïnal
Concept & original design : Baudouin d'Aumeries
Assistance for programming : Marc-Olivier Méhu
Technical & hardware support : Manuel Goepfert

Contact : metmap@orbifly.com




SOURCES & CREDITS :

   NOAA       Earth
Advisory